Location: Berg
(47.2344°N, 9.5296°E)
Time: 23:39:11
(UTC+00:00)

AAUSAT CUBESAT 2 - Pass Details

Date: 06 December 2021
Orbit: 571 x 586 km, 97.5° (Epoch: 19 January)

Event Time Altitude Azimuth Distance (km) Brightness Sun altitude
Rises 16:27:52 0° 197° (SSW) 2,767 ? -9.1°
Reaches altitude 10° 16:30:19 10° 211° (SSW) 1,874 ? -9.5°
Maximum altitude 16:33:38 24° 266° (W) 1,208 ? -10.0°
Drops below altitude 10° 16:36:59 10° 321° (NW) 1,886 ? -10.6°
Sets 16:39:28 0° 336° (NNW) 2,791 ? -11.0°
